{"data":{"norad_id":69931,"epoch":"2026-09-18T23:03:08.280000Z","epoch_age_seconds":150812,"freshness":"FRESH","line1":"1 69931U 26156BQ  26261.96051250  .00001290  00000+0  13123-3 0  9997","line2":"2 69931  97.7434 161.2359 0007669 270.7551  89.2789 14.92472407 10987","mean_motion":14.92472407,"eccentricity":0.0007669,"inclination_deg":97.7434,"raan_deg":161.2359,"arg_perigee_deg":270.7551,"mean_anomaly_deg":89.2789,"bstar":0.00013123,"rev_number":1098,"period_min":96.484195838135,"perigee_km":584.88519286095,"apogee_km":595.57327298901,"semimajor_km":6968.366232925,"source":"CELESTRAK","updated_at":"2026-09-20T09:00:25.207234Z"}}